{"data":{"norad_id":65151,"intl_designator":"2025-171V","name":"KUIPER-00114","alt_names":[],"object_type":"PAYLOAD","status":"ACTIVE","operator":null,"country":"US","launch_date":"2025-08-11","launch_site_code":"AFETR","launch_vehicle":null,"mission":null,"orbit_class":"UNKNOWN","rcs_meters":null,"size_class":null,"mass_kg":null,"dimensions":null,"purposes":[],"wikipedia_slug":null,"has_3d_model":false,"image_url":null,"decayed_at":null,"tle_current":{"epoch":"2026-05-25T04:04:35.395968Z","epoch_age_seconds":63464,"freshness":"FRESH","line1":"1 65151U 25171V   26145.16985412  .00000293  00000+0  67428-4 0  9992","line2":"2 65151  51.8973 197.4030 0000350  89.9159 270.1844 14.79933142 43967","mean_motion":14.79933142,"eccentricity":3.5e-5,"inclination_deg":51.8973,"raan_deg":197.403,"arg_perigee_deg":89.9159,"mean_anomaly_deg":270.1844,"bstar":6.7428e-5,"rev_number":4396,"period_min":97.301692835527,"perigee_km":629.28991238989,"apogee_km":629.78044944255,"semimajor_km":7007.6721809162,"source":"CELESTRAK","updated_at":"2026-05-25T13:38:05.170338Z"}}}